#timestamp,LO_Frequency,Hit 
1499076015.0,286047002.6,N
1499076016.0,286047002.6,N
1499076035.8,286047000.2,N
1499076055.6,286046998.9,N
1499076075.5,286047000.5,N
1499076095.3,286047001.1,N
1499076115.1,286047002.6,N
1499076135.9,286047001.4,N
1499076155.7,286047001.6,N
1499076175.6,286047000.6,N
1499076195.4,286047002.8,N
1499076215.2,286046999.7,N
1499076235.1,286047002.6,N
1499076236.0,286047002.6,N
1499076255.8,286047001.6,N
1499076275.6,286047004.7,N
1499076295.5,286047007.3,Y
1499076315.3,286047005.7,N
1499076335.2,286047003.0,N
1499076355.9,286047003.0,N
1499076375.7,286047004.2,N
1499076395.6,286047003.0,N
1499076415.4,286047003.8,N
1499076435.2,286047003.7,N
1499076455.1,286047003.4,N
1499076456.0,286047003.4,N
1499076475.8,286047003.7,N
1499076495.7,286047005.4,N
1499076515.5,286047003.8,N
1499076535.4,286047003.3,N
1499076555.2,286047003.3,N
1499076575.0,286047001.9,N
1499076575.9,286047001.9,N
1499076595.8,286047003.4,N
1499076615.6,286047003.7,N
1499076635.5,286047005.2,N
1499076655.3,286047003.4,N
1499076675.1,286047007.6,Y
1499076695.9,286047001.7,N
1499076715.7,286047005.9,N
1499076735.6,286047006.0,N
1499076755.4,286047004.4,N
1499076805.3,286047001.4,Y
1499076815.2,286047001.9,N
1499076835.0,286047004.0,N
1499076835.9,286047004.0,N
1499076855.8,286047003.0,N
1499076875.6,286047003.3,N
1499076895.4,286047003.1,N
1499076915.3,286047003.3,N
1499076935.1,286047005.6,N
1499076955.9,286047003.1,N
1499076975.7,286047001.6,N
1499076995.5,286047000.0,N
1499077015.4,286047000.2,N
1499077035.2,286047000.3,N
1499077055.0,286047000.5,N
1499077055.9,286047000.5,N
1499077075.8,286046999.9,N
1499077095.6,286047004.4,N
1499077115.5,286047001.4,N
1499077135.3,286047002.7,N
1499077155.1,286046999.9,N
1499077175.9,286047003.4,N
1499077195.7,286046999.7,N
1499077215.6,286047003.1,N
1499077235.4,286047007.4,Y
1499077255.2,286047002.4,N
1499077275.1,286046999.7,N
1499077276.0,286046999.7,N
1499077295.8,286047002.7,N
1499077315.6,286047001.9,N
1499077335.5,286047001.5,N
1499077355.3,286047001.3,N
1499077375.2,286047004.2,N
1499077395.9,286047002.6,N
1499077415.7,286047000.4,N
1499077435.6,286046999.8,N
1499077455.4,286047003.3,N
1499077475.3,286047006.7,Y
1499077495.1,286047003.7,N
1499077496.0,286047003.7,N
1499077515.8,286047002.8,N
1499077535.7,286047000.4,N
1499077555.5,286047000.2,N
1499077575.3,286047002.8,N
1499077595.2,286047001.0,N
1499077615.0,286047000.8,N
1499077615.9,286047000.8,N
1499077635.8,286046996.5,N
1499077655.6,286046998.5,N
1499077675.4,286046998.5,N
1499077695.3,286047001.1,N
1499077715.1,286047002.5,N
1499077735.9,286046999.9,N
1499077755.7,286047000.9,N
1499077775.5,286046997.0,N
1499077795.4,286046998.3,N
1499077815.2,286047002.7,N
1499077835.0,286047003.6,N
1499077835.9,286047003.6,N
1499077855.8,286047003.5,N
1499077875.6,286047006.0,N
1499077895.5,286047003.0,N
1499077915.3,286047004.0,N
1499077935.1,286047001.3,N
1499077955.9,286047005.8,N
1499077975.7,286047003.3,N
1499077995.5,286047002.3,N
1499078015.4,286047001.5,N
1499078035.2,286047004.1,N
1499078055.1,286047000.3,N
1499078056.0,286047000.3,N
1499078075.8,286047004.1,N
1499078095.6,286047000.1,N
1499078115.5,286046998.6,N
1499078135.3,286047000.9,N
1499078155.2,286047000.9,N
1499078175.9,286046998.4,N
1499078195.7,286047000.1,N
1499078215.6,286046999.4,N
1499078235.4,286047001.2,N
1499078255.2,286047002.0,N
1499078305.1,286047004.0,Y
1499078315.0,286046998.5,N
1499078315.9,286046998.5,N
1499078335.8,286046997.2,N
1499078355.6,286046998.0,N
1499078375.5,286046997.2,N
1499078395.3,286046997.7,N
1499078415.1,286046995.0,N
1499078435.9,286046995.2,N
1499078455.7,286046995.5,N
1499078475.5,286046994.9,N
1499078495.4,286046995.7,N
1499078515.2,286046995.8,N
1499078535.1,286046999.4,N
1499078536.0,286046999.4,N
1499078555.8,286046996.5,N
1499078575.6,286046997.6,N
1499078595.5,286046998.7,N
1499078615.3,286046995.4,N
1499078635.2,286046997.9,N
1499078655.9,286046998.3,N
1499078675.7,286046996.8,N
1499078695.6,286046995.3,N
1499078715.4,286046997.6,N
1499078735.2,286046997.8,N
1499078755.1,286046995.4,N
1499078756.0,286046995.4,N
1499078775.8,286046997.6,N
1499078795.7,286046997.8,N
1499078815.5,286046997.4,N
1499078835.3,286046997.7,N
1499078855.2,286046999.3,N
1499078875.0,286046996.5,N
1499078875.9,286046996.5,N
1499078895.8,286046997.8,N
1499078915.6,286046995.5,N
1499078935.4,286046997.0,N
1499078955.3,286046995.4,N
1499078975.1,286046997.1,N
1499078976.0,286046997.1,N
1499078995.8,286046999.2,N
1499079015.7,286046995.3,N
1499079035.5,286046994.9,N
1499079055.3,286046996.9,N
1499079075.2,286046996.7,N
1499079095.0,286046998.2,N
1499079095.9,286046998.2,N
1499079115.8,286047000.0,N
1499079135.6,286047002.0,N
1499079155.4,286047002.3,N
1499079175.3,286047002.8,N
1499079195.1,286047003.7,N
1499079215.9,286047002.5,N
1499079235.7,286047002.7,N
1499079255.5,286046998.2,N
1499079275.4,286046998.1,N
1499079295.2,286046998.5,N
1499079315.0,286047001.0,N
1499079315.9,286047001.0,N
1499079335.8,286046998.1,N
1499079355.6,286046999.3,N
1499079375.5,286046996.7,N
1499079395.3,286046996.8,N
1499079415.1,286046997.4,N
1499079435.9,286046997.7,N
1499079455.7,286046997.6,N
1499079475.5,286046997.5,N
1499079495.4,286046998.0,N
1499079515.2,286046998.0,N
1499079535.0,286046995.2,N
1499079536.0,286046995.2,N
1499079555.8,286046995.7,N
1499079575.6,286046994.5,N
1499079595.5,286046996.3,N
